Waco, TX

6:08 PM CST on February 27, 2017 (GMT -0600)
Waco Regional

Weather History for KACT - March, 2013

Change the Weather History Date:

Thursday, March 21, 2013

  Actual Average Record
Temperature  
Mean Temperature 62 °F 60 °F  
Max Temperature 73 °F 71 °F 93 °F (1916)
Min Temperature 50 °F 48 °F 25 °F (1996)
Degree Days  
Heating Degree Days 3 7  
Month to date heating degree days 190 189  
Since 1 July heating degree days 1756 2001  
Cooling Degree Days 0 1  
Month to date cooling degree days 15 20  
Year to date cooling degree days 32 29  
Growing Degree Days 12 (Base 50)    
Moisture  
Dew Point 48 °F    
Average Humidity 64    
Maximum Humidity 78    
Minimum Humidity 50    
Precipitation  
Precipitation 0.00 in 0.10 in 2.58 in (1982)
Month to date precipitation 1.81 2.25  
Year to date precipitation 8.96 7.00  
Snow  
Snow 0.00 in 0.00 in T in (1968)
Month to date snowfall 0.0 0.1  
Since 1 July snowfall T 0.9  
Snow Depth 0.00 in    
Sea Level Pressure  
Sea Level Pressure 29.79 in    
Wind  
Wind Speed 16 mph (SSE)    
Max Wind Speed 30 mph    
Max Gust Speed 37 mph    
Visibility 10 miles    
Events      
T = Trace of Precipitation, MM = Missing Value Source: NWS Daily Summary

Daily Weather History Graph

Daily Weather History Graph

Search for Another Location

Airport or City:

Trip Planner

Search our weather history database for the weather conditions in past years. The results will help you decide how hot, cold, wet, or windy it might be!

Date:

Astronomy

Mar. 21, 2013 Rise Set
Actual Time 7:31 AM CDT 7:41 PM CDT
Civil Twilight 7:06 AM CDT 8:05 PM CDT
Nautical Twilight 6:38 AM CDT 8:33 PM CDT
Astronomical Twilight 6:09 AM CDT 9:02 PM CDT
Moon 2:29 PM CDT (3/21) 3:35 AM CDT (3/21)
Length of Visible Light 12h 58m
Length of Day
12h 10m
Waxing Gibbous, 69% of the Moon is Illuminated
Mar 21
Waxing Gibbous
Mar 27
Full
Apr 2
Last Quarter
Apr 10
New
Apr 18
First Quarter

Hourly Weather History & Observations

Time (CDT) Temp. Dew Point Humidity Pressure Visibility Wind Dir Wind Speed Gust Speed Precip Events Conditions
12:51 AM 50.0 °F 34.0 °F 54% 30.03 in 10.0 mi East 4.6 mph - N/A   Clear
1:51 AM 52.0 °F 36.0 °F 54% 29.99 in 10.0 mi ESE 6.9 mph - N/A   Clear
2:51 AM 52.0 °F 37.0 °F 57% 29.97 in 10.0 mi ESE 8.1 mph - N/A   Mostly Cloudy
4:51 AM 52.0 °F 35.1 °F 53% 29.91 in 10.0 mi SE 5.8 mph - N/A   Mostly Cloudy
5:51 AM 54.0 °F 35.1 °F 49% 29.90 in 10.0 mi SSE 9.2 mph - N/A   Overcast
6:51 AM 53.6 °F 37.4 °F 54% 29.91 in 10.0 mi SSE 11.5 mph - N/A   Overcast
7:51 AM 54.0 °F 42.1 °F 64% 29.90 in 10.0 mi SSE 10.4 mph - N/A   Overcast
8:51 AM 55.0 °F 45.0 °F 69% 29.91 in 10.0 mi South 10.4 mph - N/A   Overcast
9:51 AM 60.1 °F 48.9 °F 67% 29.87 in 10.0 mi South 13.8 mph - N/A   Clear
10:51 AM 64.0 °F 53.1 °F 67% 29.85 in 10.0 mi South 21.9 mph 28.8 mph N/A   Partly Cloudy
11:51 AM 68.0 °F 51.1 °F 55% 29.82 in 10.0 mi South 19.6 mph 31.1 mph N/A   Scattered Clouds
12:51 PM 66.0 °F 51.1 °F 59% 29.78 in 10.0 mi South 20.7 mph 29.9 mph N/A   Overcast
1:51 PM 66.2 °F 53.6 °F 64% 29.74 in 10.0 mi South 18.4 mph 31.1 mph N/A   Overcast
2:51 PM 66.9 °F 53.1 °F 61% 29.70 in 10.0 mi South 19.6 mph 27.6 mph N/A   Overcast
3:51 PM 69.1 °F 55.0 °F 61% 29.65 in 10.0 mi South 19.6 mph 25.3 mph N/A   Overcast
4:51 PM 71.1 °F 55.0 °F 57% 29.61 in 10.0 mi South 24.2 mph - N/A   Mostly Cloudy
5:51 PM 70.0 °F 55.0 °F 59% 29.60 in 10.0 mi South 18.4 mph 24.2 mph N/A   Scattered Clouds
6:51 PM 70.0 °F 55.9 °F 61% 29.59 in 10.0 mi South 23.0 mph 29.9 mph N/A   Clear
7:51 PM 69.1 °F 55.9 °F 63% 29.58 in 10.0 mi SSE 18.4 mph - N/A   Clear
8:51 PM 68.0 °F 57.2 °F 68% 29.60 in 10.0 mi SSE 18.4 mph 24.2 mph N/A   Clear
10:51 PM 64.9 °F 57.9 °F 78% 29.61 in 10.0 mi South 18.4 mph - N/A   Clear
11:51 PM 64.9 °F 57.9 °F 78% 29.61 in 10.0 mi South 19.6 mph - N/A   Mostly Cloudy